Wetterdaten: Samstag, 08.11.2014
Datum Zeit Temperatur Luftfeuchte Luftdruck Regen Wind Richtung Richtung Taupunkt Windchill Windben
08.11.2014 00:05 6,4 C 85 % 1015,4 hPa 0,0 l/m 0,0 km/h (0 Bft) SO 135 4,1 C 7,8 C 0,0 km/h (0 Bft)
08.11.2014 00:10 6,5 C 84 % 1015,4 hPa 0,0 l/m 0,0 km/h (0 Bft) SO 135 4,0 C 7,8 C 0,0 km/h (0 Bft)
08.11.2014 00:15 6,4 C 83 % 1015,6 hPa 0,0 l/m 0,0 km/h (0 Bft) SO 135 3,7 C 7,8 C 0,0 km/h (0 Bft)
08.11.2014 00:20 6,4 C 81 % 1015,6 hPa 0,0 l/m 0,0 km/h (0 Bft) SO 135 3,4 C 7,8 C 0,0 km/h (0 Bft)
08.11.2014 00:25 6,4 C 80 % 1015,6 hPa 0,0 l/m 0,0 km/h (0 Bft) SO 135 3,2 C 7,8 C 0,0 km/h (0 Bft)
08.11.2014 00:30 6,4 C 80 % 1015,6 hPa 0,0 l/m 0,0 km/h (0 Bft) SO 135 3,2 C 7,8 C 0,0 km/h (0 Bft)
08.11.2014 00:35 6,3 C 80 % 1015,5 hPa 0,0 l/m 0,0 km/h (0 Bft) SO 135 3,1 C 7,8 C 0,0 km/h (0 Bft)
08.11.2014 00:40 6,4 C 79 % 1015,5 hPa 0,0 l/m 0,0 km/h (0 Bft) SO 135 3,0 C 7,8 C 0,0 km/h (0 Bft)
08.11.2014 00:45 6,5 C 78 % 1015,5 hPa 0,0 l/m 0,0 km/h (0 Bft) SO 135 2,9 C 7,8 C 0,0 km/h (0 Bft)
08.11.2014 00:50 6,3 C 79 % 1015,5 hPa 0,0 l/m 0,0 km/h (0 Bft) SO 135 2,9 C 7,8 C 0,0 km/h (0 Bft)
08.11.2014 00:55 6,2 C 79 % 1015,8 hPa 0,0 l/m 0,0 km/h (0 Bft) SO 135 2,8 C 7,8 C 0,0 km/h (0 Bft)
08.11.2014 01:00 6,0 C 79 % 1015,8 hPa 0,0 l/m 0,0 km/h (0 Bft) SO 135 2,6 C 7,8 C 0,0 km/h (0 Bft)
08.11.2014 01:05 6,0 C 79 % 1015,8 hPa 0,0 l/m 0,0 km/h (0 Bft) SO 135 2,6 C 7,8 C 0,0 km/h (0 Bft)
08.11.2014 01:10 6,3 C 78 % 1015,8 hPa 0,0 l/m 0,0 km/h (0 Bft) SO 135 2,8 C 7,8 C 0,0 km/h (0 Bft)
08.11.2014 01:15 6,3 C 78 % 1015,8 hPa 0,0 l/m 0,0 km/h (0 Bft) SO 135 2,8 C 7,8 C 0,0 km/h (0 Bft)
08.11.2014 01:20 6,2 C 78 % 1015,7 hPa 0,0 l/m 0,0 km/h (0 Bft) SO 135 2,7 C 7,8 C 0,0 km/h (0 Bft)
08.11.2014 01:25 6,1 C 78 % 1015,7 hPa 0,0 l/m 0,0 km/h (0 Bft) SO 135 2,6 C 7,8 C 0,0 km/h (0 Bft)
08.11.2014 01:30 6,0 C 78 % 1015,7 hPa 0,0 l/m 0,0 km/h (0 Bft) SO 135 2,5 C 7,8 C 0,0 km/h (0 Bft)
08.11.2014 01:35 5,9 C 79 % 1015,7 hPa 0,0 l/m 0,0 km/h (0 Bft) SO 135 2,5 C 7,8 C 0,0 km/h (0 Bft)
08.11.2014 01:40 5,9 C 79 % 1015,8 hPa 0,0 l/m 0,0 km/h (0 Bft) SO 135 2,5 C 7,8 C 0,0 km/h (0 Bft)
08.11.2014 01:45 5,6 C 80 % 1015,8 hPa 0,0 l/m 0,0 km/h (0 Bft) SO 135 2,4 C 7,8 C 0,0 km/h (0 Bft)
08.11.2014 01:50 5,4 C 80 % 1015,8 hPa 0,0 l/m 0,0 km/h (0 Bft) SO 135 2,2 C 7,8 C 0,0 km/h (0 Bft)
08.11.2014 01:55 5,2 C 82 % 1015,8 hPa 0,0 l/m 0,0 km/h (0 Bft) SO 135 2,4 C 7,8 C 0,0 km/h (0 Bft)
08.11.2014 02:00 5,4 C 83 % 1015,8 hPa 0,0 l/m 0,0 km/h (0 Bft) SO 135 2,7 C 7,8 C 0,0 km/h (0 Bft)
08.11.2014 02:05 5,2 C 83 % 1015,8 hPa 0,0 l/m 0,0 km/h (0 Bft) SO 135 2,6 C 7,8 C 0,0 km/h (0 Bft)
08.11.2014 02:10 5,0 C 83 % 1015,8 hPa 0,0 l/m 0,0 km/h (0 Bft) SO 135 2,4 C 7,8 C 0,0 km/h (0 Bft)
08.11.2014 02:15 5,0 C 83 % 1015,8 hPa 0,0 l/m 0,0 km/h (0 Bft) SO 135 2,4 C 7,8 C 0,0 km/h (0 Bft)
08.11.2014 02:20 5,0 C 84 % 1015,8 hPa 0,0 l/m 0,0 km/h (0 Bft) SO 135 2,5 C 7,8 C 0,0 km/h (0 Bft)
08.11.2014 02:25 5,0 C 84 % 1015,8 hPa 0,0 l/m 0,0 km/h (0 Bft) SO 135 2,5 C 7,8 C 0,0 km/h (0 Bft)
08.11.2014 02:30 5,0 C 84 % 1015,8 hPa 0,0 l/m 0,0 km/h (0 Bft) SO 135 2,5 C 7,8 C 0,0 km/h (0 Bft)
08.11.2014 02:35 5,0 C 85 % 1015,8 hPa 0,0 l/m 0,0 km/h (0 Bft) SO 135 2,7 C 7,8 C 0,0 km/h (0 Bft)
08.11.2014 02:40 5,0 C 85 % 1016,0 hPa 0,0 l/m 0,0 km/h (0 Bft) SO 135 2,7 C 7,8 C 0,0 km/h (0 Bft)
08.11.2014 02:45 5,0 C 85 % 1016,0 hPa 0,0 l/m 0,0 km/h (0 Bft) SO 135 2,7 C 7,8 C 0,0 km/h (0 Bft)
08.11.2014 02:50 5,0 C 85 % 1016,0 hPa 0,0 l/m 0,0 km/h (0 Bft) SO 135 2,7 C 7,8 C 0,0 km/h (0 Bft)
08.11.2014 02:55 5,4 C 86 % 1016,0 hPa 0,0 l/m 0,0 km/h (0 Bft) SO 135 3,3 C 7,8 C 0,0 km/h (0 Bft)
08.11.2014 02:58 5,5 C 86 % 1015,9 hPa 0,0 l/m 0,0 km/h (0 Bft) SO 135 3,3 C 7,8 C 0,0 km/h (0 Bft)
08.11.2014 03:00 5,7 C 86 % 1015,9 hPa 0,0 l/m 0,0 km/h (0 Bft) SO 135 3,5 C 7,8 C 0,0 km/h (0 Bft)
08.11.2014 03:05 5,7 C 86 % 1015,9 hPa 0,0 l/m 0,0 km/h (0 Bft) SO 135 3,5 C 7,8 C 0,0 km/h (0 Bft)
08.11.2014 03:10 5,5 C 85 % 1015,9 hPa 0,0 l/m 0,0 km/h (0 Bft) SO 135 3,2 C 7,8 C 0,0 km/h (0 Bft)
08.11.2014 03:15 5,4 C 85 % 1015,8 hPa 0,0 l/m 0,0 km/h (0 Bft) SO 135 3,1 C 7,8 C 0,0 km/h (0 Bft)
08.11.2014 03:20 5,4 C 86 % 1015,8 hPa 0,0 l/m 0,0 km/h (0 Bft) SO 135 3,3 C 7,8 C 0,0 km/h (0 Bft)
08.11.2014 03:25 5,3 C 86 % 1015,8 hPa 0,0 l/m 0,0 km/h (0 Bft) SO 135 3,2 C 7,8 C 0,0 km/h (0 Bft)
08.11.2014 03:30 5,2 C 86 % 1015,8 hPa 0,0 l/m 0,0 km/h (0 Bft) SO 135 3,1 C 7,8 C 0,0 km/h (0 Bft)
08.11.2014 03:35 5,2 C 86 % 1015,9 hPa 0,0 l/m 0,0 km/h (0 Bft) SO 135 3,1 C 7,8 C 0,0 km/h (0 Bft)
08.11.2014 03:40 5,2 C 86 % 1015,9 hPa 0,0 l/m 0,0 km/h (0 Bft) SO 135 3,1 C 7,8 C 0,0 km/h (0 Bft)
08.11.2014 03:45 5,1 C 86 % 1015,9 hPa 0,0 l/m 0,0 km/h (0 Bft) SO 135 3,0 C 7,8 C 0,0 km/h (0 Bft)
08.11.2014 03:50 5,1 C 87 % 1015,9 hPa 0,0 l/m 0,0 km/h (0 Bft) SO 135 3,1 C 7,8 C 0,0 km/h (0 Bft)
08.11.2014 03:55 5,1 C 87 % 1016,0 hPa 0,0 l/m 0,0 km/h (0 Bft) SO 135 3,1 C 7,8 C 0,0 km/h (0 Bft)
08.11.2014 04:00 5,1 C 87 % 1016,0 hPa 0,0 l/m 0,0 km/h (0 Bft) SO 135 3,1 C 7,8 C 0,0 km/h (0 Bft)
08.11.2014 04:05 5,0 C 87 % 1016,0 hPa 0,0 l/m 0,0 km/h (0 Bft) SO 135 3,0 C 7,8 C 0,0 km/h (0 Bft)
08.11.2014 04:10 5,0 C 87 % 1016,0 hPa 0,0 l/m 0,0 km/h (0 Bft) SO 135 3,0 C 7,8 C 0,0 km/h (0 Bft)
08.11.2014 04:15 5,0 C 87 % 1016,0 hPa 0,0 l/m 0,0 km/h (0 Bft) SO 135 3,0 C 7,8 C 0,0 km/h (0 Bft)
08.11.2014 04:20 5,0 C 87 % 1016,2 hPa 0,0 l/m 0,0 km/h (0 Bft) SO 135 3,0 C 7,8 C 0,0 km/h (0 Bft)
08.11.2014 04:25 5,0 C 87 % 1016,2 hPa 0,0 l/m 0,0 km/h (0 Bft) SO 135 3,0 C 7,8 C 0,0 km/h (0 Bft)
08.11.2014 04:30 4,9 C 88 % 1016,2 hPa 0,0 l/m 0,0 km/h (0 Bft) SO 135 3,1 C 7,8 C 0,0 km/h (0 Bft)
08.11.2014 04:35 4,9 C 88 % 1016,2 hPa 0,0 l/m 0,0 km/h (0 Bft) SO 135 3,1 C 7,8 C 0,0 km/h (0 Bft)
08.11.2014 04:40 4,9 C 88 % 1016,0 hPa 0,0 l/m 0,0 km/h (0 Bft) SO 135 3,1 C 7,8 C 0,0 km/h (0 Bft)
08.11.2014 04:45 5,0 C 88 % 1016,0 hPa 0,0 l/m 0,0 km/h (0 Bft) SO 135 3,2 C 7,8 C 0,0 km/h (0 Bft)
08.11.2014 04:50 4,9 C 88 % 1016,0 hPa 0,0 l/m 0,0 km/h (0 Bft) SO 135 3,1 C 7,8 C 0,0 km/h (0 Bft)
08.11.2014 04:55 4,9 C 88 % 1016,0 hPa 0,0 l/m 0,0 km/h (0 Bft) SO 135 3,1 C 7,8 C 0,0 km/h (0 Bft)
08.11.2014 05:00 4,9 C 88 % 1016,1 hPa 0,0 l/m 0,0 km/h (0 Bft) SO 135 3,1 C 7,8 C 0,0 km/h (0 Bft)
08.11.2014 05:05 4,9 C 88 % 1016,1 hPa 0,0 l/m 0,0 km/h (0 Bft) SO 135 3,1 C 7,8 C 0,0 km/h (0 Bft)
08.11.2014 05:10 4,8 C 88 % 1016,1 hPa 0,0 l/m 0,0 km/h (0 Bft) SO 135 3,0 C 7,8 C 0,0 km/h (0 Bft)
08.11.2014 05:15 4,9 C 88 % 1016,1 hPa 0,0 l/m 0,0 km/h (0 Bft) SO 135 3,1 C 7,8 C 0,0 km/h (0 Bft)
08.11.2014 05:20 4,9 C 88 % 1016,1 hPa 0,0 l/m 0,0 km/h (0 Bft) SO 135 3,1 C 7,8 C 0,0 km/h (0 Bft)
08.11.2014 05:25 5,0 C 88 % 1016,1 hPa 0,0 l/m 0,0 km/h (0 Bft) SO 135 3,2 C 7,8 C 0,0 km/h (0 Bft)
08.11.2014 05:30 4,9 C 89 % 1016,1 hPa 0,0 l/m 0,0 km/h (0 Bft) SO 135 3,2 C 7,8 C 0,0 km/h (0 Bft)
08.11.2014 05:35 5,0 C 88 % 1016,1 hPa 0,0 l/m 0,0 km/h (0 Bft) SO 135 3,2 C 7,8 C 0,0 km/h (0 Bft)
08.11.2014 05:40 4,9 C 89 % 1016,2 hPa 0,0 l/m 0,0 km/h (0 Bft) SO 135 3,2 C 7,8 C 0,0 km/h (0 Bft)
08.11.2014 05:45 4,9 C 89 % 1016,2 hPa 0,0 l/m 0,0 km/h (0 Bft) SO 135 3,2 C 7,8 C 0,0 km/h (0 Bft)
08.11.2014 05:50 4,9 C 89 % 1016,2 hPa 0,0 l/m 0,0 km/h (0 Bft) SO 135 3,2 C 7,8 C 0,0 km/h (0 Bft)
08.11.2014 05:55 4,9 C 89 % 1016,2 hPa 0,0 l/m 0,0 km/h (0 Bft) SO 135 3,2 C 7,8 C 0,0 km/h (0 Bft)
08.11.2014 05:58 4,9 C 89 % 1016,3 hPa 0,0 l/m 0,0 km/h (0 Bft) SO 135 3,2 C 7,8 C 0,0 km/h (0 Bft)
08.11.2014 06:00 4,9 C 89 % 1016,3 hPa 0,0 l/m 0,0 km/h (0 Bft) SO 135 3,2 C 7,8 C 0,0 km/h (0 Bft)
08.11.2014 06:05 4,9 C 89 % 1016,3 hPa 0,0 l/m 0,0 km/h (0 Bft) SO 135 3,2 C 7,8 C 0,0 km/h (0 Bft)
08.11.2014 06:10 4,9 C 89 % 1016,3 hPa 0,0 l/m 0,0 km/h (0 Bft) SO 135 3,2 C 7,8 C 0,0 km/h (0 Bft)
08.11.2014 06:15 4,9 C 89 % 1016,9 hPa 0,0 l/m 0,0 km/h (0 Bft) SO 135 3,2 C 7,8 C 0,0 km/h (0 Bft)
08.11.2014 06:20 4,9 C 89 % 1016,9 hPa 0,0 l/m 0,0 km/h (0 Bft) SO 135 3,2 C 7,8 C 0,0 km/h (0 Bft)
08.11.2014 06:25 5,0 C 89 % 1016,9 hPa 0,0 l/m 0,0 km/h (0 Bft) SO 135 3,3 C 7,8 C 0,0 km/h (0 Bft)
08.11.2014 06:30 5,0 C 89 % 1016,9 hPa 0,0 l/m 0,0 km/h (0 Bft) SO 135 3,3 C 7,8 C 0,0 km/h (0 Bft)
08.11.2014 06:35 4,9 C 89 % 1017,0 hPa 0,0 l/m 0,0 km/h (0 Bft) SO 135 3,2 C 7,8 C 0,0 km/h (0 Bft)
08.11.2014 06:40 4,9 C 89 % 1017,0 hPa 0,0 l/m 0,0 km/h (0 Bft) SO 135 3,2 C 7,8 C 0,0 km/h (0 Bft)
08.11.2014 06:45 4,8 C 89 % 1017,0 hPa 0,0 l/m 0,0 km/h (0 Bft) SO 135 3,1 C 7,8 C 0,0 km/h (0 Bft)
08.11.2014 06:50 4,8 C 89 % 1017,0 hPa 0,0 l/m 0,0 km/h (0 Bft) SO 135 3,1 C 7,8 C 0,0 km/h (0 Bft)
08.11.2014 06:55 4,8 C 89 % 1017,2 hPa 0,0 l/m 0,0 km/h (0 Bft) SO 135 3,1 C 7,8 C 0,0 km/h (0 Bft)
08.11.2014 07:00 4,8 C 90 % 1017,2 hPa 0,0 l/m 0,0 km/h (0 Bft) SO 135 3,3 C 7,8 C 0,0 km/h (0 Bft)
08.11.2014 07:05 4,8 C 90 % 1017,2 hPa 0,0 l/m 0,0 km/h (0 Bft) SO 135 3,3 C 7,8 C 0,0 km/h (0 Bft)
08.11.2014 07:10 4,7 C 90 % 1017,2 hPa 0,0 l/m 0,0 km/h (0 Bft) SO 135 3,2 C 7,8 C 0,0 km/h (0 Bft)
08.11.2014 07:15 4,7 C 90 % 1017,2 hPa 0,0 l/m 0,0 km/h (0 Bft) SO 135 3,2 C 7,8 C 0,0 km/h (0 Bft)
08.11.2014 07:20 4,8 C 90 % 1017,4 hPa 0,0 l/m 0,0 km/h (0 Bft) SO 135 3,3 C 7,8 C 0,0 km/h (0 Bft)
08.11.2014 07:25 4,8 C 90 % 1017,4 hPa 0,0 l/m 0,0 km/h (0 Bft) SO 135 3,3 C 7,8 C 0,0 km/h (0 Bft)
08.11.2014 07:30 4,8 C 90 % 1017,4 hPa 0,0 l/m 0,0 km/h (0 Bft) SO 135 3,3 C 7,8 C 0,0 km/h (0 Bft)
08.11.2014 07:35 4,7 C 90 % 1017,4 hPa 0,0 l/m 0,0 km/h (0 Bft) SO 135 3,2 C 7,8 C 0,0 km/h (0 Bft)
08.11.2014 07:40 4,8 C 90 % 1017,4 hPa 0,0 l/m 0,0 km/h (0 Bft) SO 135 3,3 C 7,8 C 0,0 km/h (0 Bft)
08.11.2014 07:45 4,8 C 90 % 1017,4 hPa 0,0 l/m 0,0 km/h (0 Bft) SO 135 3,3 C 7,8 C 0,0 km/h (0 Bft)
08.11.2014 07:50 4,8 C 90 % 1017,4 hPa 0,0 l/m 0,0 km/h (0 Bft) SO 135 3,3 C 7,8 C 0,0 km/h (0 Bft)
08.11.2014 07:55 4,9 C 90 % 1017,4 hPa 0,0 l/m 0,0 km/h (0 Bft) SO 135 3,4 C 7,8 C 0,0 km/h (0 Bft)
08.11.2014 08:00 5,0 C 90 % 1017,4 hPa 0,0 l/m 0,0 km/h (0 Bft) SO 135 3,5 C 7,8 C 0,0 km/h (0 Bft)
08.11.2014 08:05 5,2 C 90 % 1017,4 hPa 0,0 l/m 0,0 km/h (0 Bft) SO 135 3,7 C 7,8 C 0,0 km/h (0 Bft)
08.11.2014 08:10 5,3 C 90 % 1017,4 hPa 0,0 l/m 0,0 km/h (0 Bft) SO 135 3,8 C 7,8 C 0,0 km/h (0 Bft)
08.11.2014 08:15 5,3 C 90 % 1017,4 hPa 0,0 l/m 0,0 km/h (0 Bft) SO 135 3,8 C 7,8 C 0,0 km/h (0 Bft)
08.11.2014 08:20 5,4 C 90 % 1017,6 hPa 0,0 l/m 0,0 km/h (0 Bft) SO 135 3,9 C 7,8 C 0,0 km/h (0 Bft)
08.11.2014 08:25 5,6 C 90 % 1017,6 hPa 0,0 l/m 0,0 km/h (0 Bft) SO 135 4,1 C 7,8 C 0,0 km/h (0 Bft)
08.11.2014 08:30 5,7 C 89 % 1017,6 hPa 0,0 l/m 0,0 km/h (0 Bft) SO 135 4,0 C 7,8 C 0,0 km/h (0 Bft)
08.11.2014 08:35 5,9 C 89 % 1017,6 hPa 0,0 l/m 0,0 km/h (0 Bft) SO 135 4,2 C 7,8 C 0,0 km/h (0 Bft)
08.11.2014 08:40 6,1 C 89 % 1017,9 hPa 0,0 l/m 0,0 km/h (0 Bft) SO 135 4,4 C 7,8 C 0,0 km/h (0 Bft)
08.11.2014 08:45 6,4 C 89 % 1017,9 hPa 0,0 l/m 0,0 km/h (0 Bft) SO 135 4,7 C 7,8 C 0,0 km/h (0 Bft)
08.11.2014 08:50 6,5 C 89 % 1017,9 hPa 0,0 l/m 0,0 km/h (0 Bft) SO 135 4,8 C 7,8 C 0,0 km/h (0 Bft)
08.11.2014 08:53 6,8 C 89 % 1017,9 hPa 0,0 l/m 0,0 km/h (0 Bft) SO 135 5,1 C 7,8 C 0,0 km/h (0 Bft)
08.11.2014 08:55 6,8 C 88 % 1017,9 hPa 0,0 l/m 0,0 km/h (0 Bft) SO 135 5,0 C 7,8 C 0,0 km/h (0 Bft)
08.11.2014 09:00 7,1 C 88 % 1017,9 hPa 0,0 l/m 0,0 km/h (0 Bft) SO 135 5,2 C 7,8 C 0,0 km/h (0 Bft)
08.11.2014 09:05 7,1 C 88 % 1017,9 hPa 0,0 l/m 0,0 km/h (0 Bft) SO 135 5,2 C 7,8 C 0,0 km/h (0 Bft)
08.11.2014 09:10 7,1 C 88 % 1017,9 hPa 0,0 l/m 0,0 km/h (0 Bft) SO 135 5,2 C 7,8 C 0,0 km/h (0 Bft)
08.11.2014 09:15 7,1 C 87 % 1017,9 hPa 0,0 l/m 0,0 km/h (0 Bft) SO 135 5,1 C 7,8 C 0,0 km/h (0 Bft)
08.11.2014 09:20 7,2 C 87 % 1017,9 hPa 0,0 l/m 0,0 km/h (0 Bft) SO 135 5,2 C 7,8 C 0,0 km/h (0 Bft)
08.11.2014 09:25 7,2 C 87 % 1017,9 hPa 0,0 l/m 0,0 km/h (0 Bft) SO 135 5,2 C 7,8 C 0,0 km/h (0 Bft)
08.11.2014 09:30 7,4 C 86 % 1017,9 hPa 0,0 l/m 0,0 km/h (0 Bft) SO 135 5,2 C 7,8 C 0,0 km/h (0 Bft)
08.11.2014 09:35 7,5 C 86 % 1017,9 hPa 0,0 l/m 0,0 km/h (0 Bft) SO 135 5,3 C 7,8 C 0,0 km/h (0 Bft)
08.11.2014 09:40 7,5 C 86 % 1017,9 hPa 0,0 l/m 0,0 km/h (0 Bft) SO 135 5,3 C 7,8 C 0,0 km/h (0 Bft)
08.11.2014 09:45 7,5 C 86 % 1017,9 hPa 0,0 l/m 0,0 km/h (0 Bft) SO 135 5,3 C 7,8 C 0,0 km/h (0 Bft)
08.11.2014 09:50 7,5 C 85 % 1017,9 hPa 0,0 l/m 0,0 km/h (0 Bft) SO 135 5,1 C 7,8 C 0,0 km/h (0 Bft)
08.11.2014 09:55 7,6 C 85 % 1017,8 hPa 0,0 l/m 0,0 km/h (0 Bft) SO 135 5,2 C 7,8 C 0,0 km/h (0 Bft)
08.11.2014 10:00 7,9 C 85 % 1017,8 hPa 0,0 l/m 0,0 km/h (0 Bft) SO 135 5,5 C 7,8 C 0,0 km/h (0 Bft)
08.11.2014 10:05 7,9 C 84 % 1017,8 hPa 0,0 l/m 0,0 km/h (0 Bft) SO 135 5,4 C 7,8 C 0,0 km/h (0 Bft)
08.11.2014 10:10 7,9 C 84 % 1017,8 hPa 0,0 l/m 0,0 km/h (0 Bft) SO 135 5,4 C 7,8 C 0,0 km/h (0 Bft)
08.11.2014 10:15 8,5 C 83 % 1017,8 hPa 0,0 l/m 0,0 km/h (0 Bft) SO 135 5,8 C 7,8 C 0,0 km/h (0 Bft)
08.11.2014 10:20 8,9 C 83 % 1017,5 hPa 0,0 l/m 0,0 km/h (0 Bft) SO 135 6,2 C 7,8 C 0,0 km/h (0 Bft)
08.11.2014 10:25 9,1 C 80 % 1017,5 hPa 0,0 l/m 0,0 km/h (0 Bft) SO 135 5,8 C 7,8 C 0,0 km/h (0 Bft)
08.11.2014 10:30 8,9 C 80 % 1017,5 hPa 0,0 l/m 0,0 km/h (0 Bft) SO 135 5,6 C 7,8 C 0,0 km/h (0 Bft)
08.11.2014 10:35 8,7 C 78 % 1017,5 hPa 0,0 l/m 0,0 km/h (0 Bft) SO 135 5,1 C 7,8 C 0,0 km/h (0 Bft)
08.11.2014 10:40 8,5 C 76 % 1017,9 hPa 0,0 l/m 0,0 km/h (0 Bft) SO 135 4,5 C 7,8 C 0,0 km/h (0 Bft)
08.11.2014 10:45 8,3 C 77 % 1017,9 hPa 0,0 l/m 0,0 km/h (0 Bft) SO 135 4,5 C 7,8 C 0,0 km/h (0 Bft)
08.11.2014 10:50 8,2 C 76 % 1017,9 hPa 0,0 l/m 0,0 km/h (0 Bft) SO 135 4,2 C 7,8 C 0,0 km/h (0 Bft)
08.11.2014 10:55 8,2 C 73 % 1017,9 hPa 0,0 l/m 0,0 km/h (0 Bft) SO 135 3,7 C 7,8 C 0,0 km/h (0 Bft)
08.11.2014 11:00 8,2 C 72 % 1018,2 hPa 0,0 l/m 0,0 km/h (0 Bft) SO 135 3,5 C 7,8 C 0,0 km/h (0 Bft)
08.11.2014 11:05 8,3 C 70 % 1018,2 hPa 0,0 l/m 0,0 km/h (0 Bft) SO 135 3,2 C 7,8 C 0,0 km/h (0 Bft)
08.11.2014 11:10 8,3 C 69 % 1018,2 hPa 0,0 l/m 0,0 km/h (0 Bft) SO 135 3,0 C 7,8 C 0,0 km/h (0 Bft)
08.11.2014 11:15 8,5 C 67 % 1018,2 hPa 0,0 l/m 0,0 km/h (0 Bft) SO 135 2,7 C 7,8 C 0,0 km/h (0 Bft)
08.11.2014 11:20 8,6 C 67 % 1018,3 hPa 0,0 l/m 0,0 km/h (0 Bft) SO 135 2,8 C 7,8 C 0,0 km/h (0 Bft)
08.11.2014 11:25 8,6 C 68 % 1018,3 hPa 0,0 l/m 0,0 km/h (0 Bft) SO 135 3,0 C 7,8 C 0,0 km/h (0 Bft)
08.11.2014 11:30 8,7 C 67 % 1018,3 hPa 0,0 l/m 0,0 km/h (0 Bft) SO 135 2,9 C 7,8 C 0,0 km/h (0 Bft)
08.11.2014 11:35 9,0 C 63 % 1018,3 hPa 0,0 l/m 0,0 km/h (0 Bft) SO 135 2,3 C 7,8 C 0,0 km/h (0 Bft)
08.11.2014 11:40 8,9 C 64 % 1018,3 hPa 0,0 l/m 0,0 km/h (0 Bft) SO 135 2,5 C 7,8 C 0,0 km/h (0 Bft)
08.11.2014 11:45 8,7 C 65 % 1018,3 hPa 0,0 l/m 0,0 km/h (0 Bft) SO 135 2,5 C 7,8 C 0,0 km/h (0 Bft)
08.11.2014 11:50 8,7 C 64 % 1018,3 hPa 0,0 l/m 0,0 km/h (0 Bft) SO 135 2,3 C 7,8 C 0,0 km/h (0 Bft)
08.11.2014 11:53 8,8 C 65 % 1018,3 hPa 0,0 l/m 0,0 km/h (0 Bft) SO 135 2,6 C 7,8 C 0,0 km/h (0 Bft)
08.11.2014 11:55 8,9 C 64 % 1018,4 hPa 0,0 l/m 0,0 km/h (0 Bft) SO 135 2,5 C 7,8 C 0,0 km/h (0 Bft)
08.11.2014 12:00 8,9 C 66 % 1018,4 hPa 0,0 l/m 0,0 km/h (0 Bft) SO 135 2,9 C 7,8 C 0,0 km/h (0 Bft)
08.11.2014 12:05 8,9 C 67 % 1018,4 hPa 0,0 l/m 0,0 km/h (0 Bft) SO 135 3,1 C 7,8 C 0,0 km/h (0 Bft)
08.11.2014 12:10 9,1 C 64 % 1018,4 hPa 0,0 l/m 0,0 km/h (0 Bft) SO 135 2,7 C 7,8 C 0,0 km/h (0 Bft)
08.11.2014 12:15 9,1 C 65 % 1018,5 hPa 0,0 l/m 0,0 km/h (0 Bft) SO 135 2,9 C 7,8 C 0,0 km/h (0 Bft)
08.11.2014 12:20 9,2 C 63 % 1018,5 hPa 0,0 l/m 0,0 km/h (0 Bft) SO 135 2,5 C 7,8 C 0,0 km/h (0 Bft)
08.11.2014 12:25 9,1 C 64 % 1018,5 hPa 0,0 l/m 0,0 km/h (0 Bft) SO 135 2,7 C 7,8 C 0,0 km/h (0 Bft)
08.11.2014 12:30 9,2 C 63 % 1018,5 hPa 0,0 l/m 0,0 km/h (0 Bft) SO 135 2,5 C 7,8 C 0,0 km/h (0 Bft)
08.11.2014 12:35 9,3 C 62 % 1018,2 hPa 0,0 l/m 0,0 km/h (0 Bft) SO 135 2,4 C 7,8 C 0,0 km/h (0 Bft)
08.11.2014 12:40 9,4 C 62 % 1018,2 hPa 0,0 l/m 0,0 km/h (0 Bft) SO 135 2,5 C 7,8 C 0,0 km/h (0 Bft)
08.11.2014 12:45 9,5 C 61 % 1018,2 hPa 0,0 l/m 0,0 km/h (0 Bft) SO 135 2,4 C 7,8 C 0,0 km/h (0 Bft)
08.11.2014 12:50 9,3 C 60 % 1018,2 hPa 0,0 l/m 0,0 km/h (0 Bft) SO 135 1,9 C 7,8 C 0,0 km/h (0 Bft)
08.11.2014 12:55 9,2 C 63 % 1017,9 hPa 0,0 l/m 0,0 km/h (0 Bft) SO 135 2,5 C 7,8 C 0,0 km/h (0 Bft)
08.11.2014 13:00 9,1 C 64 % 1017,9 hPa 0,0 l/m 0,0 km/h (0 Bft) SO 135 2,7 C 7,8 C 0,0 km/h (0 Bft)
08.11.2014 13:05 8,8 C 66 % 1017,9 hPa 0,0 l/m 0,0 km/h (0 Bft) SO 135 2,8 C 7,8 C 0,0 km/h (0 Bft)
08.11.2014 13:10 8,9 C 67 % 1017,9 hPa 0,0 l/m 0,0 km/h (0 Bft) SO 135 3,1 C 7,8 C 0,0 km/h (0 Bft)
08.11.2014 13:15 8,9 C 67 % 1017,9 hPa 0,0 l/m 0,0 km/h (0 Bft) SO 135 3,1 C 7,8 C 0,0 km/h (0 Bft)
08.11.2014 13:20 9,0 C 67 % 1017,8 hPa 0,0 l/m 0,0 km/h (0 Bft) SO 135 3,2 C 7,8 C 0,0 km/h (0 Bft)
08.11.2014 13:25 9,2 C 68 % 1017,8 hPa 0,0 l/m 0,0 km/h (0 Bft) SO 135 3,6 C 7,8 C 0,0 km/h (0 Bft)
08.11.2014 13:30 9,1 C 68 % 1017,8 hPa 0,0 l/m 0,0 km/h (0 Bft) SO 135 3,5 C 7,8 C 0,0 km/h (0 Bft)
08.11.2014 13:35 9,7 C 66 % 1017,8 hPa 0,0 l/m 0,0 km/h (0 Bft) SO 135 3,7 C 7,8 C 0,0 km/h (0 Bft)
08.11.2014 13:40 10,1 C 63 % 1017,8 hPa 0,0 l/m 0,0 km/h (0 Bft) SO 135 3,4 C 7,8 C 0,0 km/h (0 Bft)
08.11.2014 13:45 10,5 C 61 % 1017,8 hPa 0,0 l/m 0,0 km/h (0 Bft) SO 135 3,3 C 7,8 C 0,0 km/h (0 Bft)
08.11.2014 13:50 10,8 C 59 % 1017,8 hPa 0,0 l/m 0,0 km/h (0 Bft) SO 135 3,1 C 7,8 C 0,0 km/h (0 Bft)
08.11.2014 13:55 11,2 C 57 % 1017,8 hPa 0,0 l/m 0,0 km/h (0 Bft) SO 135 3,0 C 7,8 C 0,0 km/h (0 Bft)
08.11.2014 14:00 11,3 C 56 % 1017,5 hPa 0,0 l/m 0,0 km/h (0 Bft) SO 135 2,8 C 7,8 C 0,0 km/h (0 Bft)
08.11.2014 14:05 11,5 C 55 % 1017,5 hPa 0,0 l/m 0,0 km/h (0 Bft) SO 135 2,8 C 7,8 C 0,0 km/h (0 Bft)
08.11.2014 14:10 11,6 C 55 % 1017,5 hPa 0,0 l/m 0,0 km/h (0 Bft) SO 135 2,9 C 7,8 C 0,0 km/h (0 Bft)
08.11.2014 14:15 11,5 C 55 % 1017,5 hPa 0,0 l/m 0,0 km/h (0 Bft) SO 135 2,8 C 7,8 C 0,0 km/h (0 Bft)
08.11.2014 14:20 11,5 C 55 % 1017,2 hPa 0,0 l/m 0,0 km/h (0 Bft) SO 135 2,8 C 7,8 C 0,0 km/h (0 Bft)
08.11.2014 14:25 11,5 C 55 % 1017,2 hPa 0,0 l/m 0,0 km/h (0 Bft) SO 135 2,8 C 7,8 C 0,0 km/h (0 Bft)
08.11.2014 14:30 11,4 C 57 % 1017,2 hPa 0,0 l/m 0,0 km/h (0 Bft) SO 135 3,2 C 7,8 C 0,0 km/h (0 Bft)
08.11.2014 14:35 11,2 C 55 % 1017,2 hPa 0,0 l/m 0,0 km/h (0 Bft) SO 135 2,5 C 7,8 C 0,0 km/h (0 Bft)
08.11.2014 14:40 11,1 C 56 % 1016,9 hPa 0,0 l/m 0,0 km/h (0 Bft) SO 135 2,7 C 7,8 C 0,0 km/h (0 Bft)
08.11.2014 14:45 11,1 C 56 % 1016,9 hPa 0,0 l/m 0,0 km/h (0 Bft) SO 135 2,7 C 7,8 C 0,0 km/h (0 Bft)
08.11.2014 14:50 11,2 C 55 % 1016,9 hPa 0,0 l/m 0,0 km/h (0 Bft) SO 135 2,5 C 7,8 C 0,0 km/h (0 Bft)
08.11.2014 14:53 11,1 C 56 % 1016,9 hPa 0,0 l/m 0,0 km/h (0 Bft) SO 135 2,7 C 7,8 C 0,0 km/h (0 Bft)
08.11.2014 15:00 10,6 C 57 % 1016,6 hPa 0,0 l/m 0,0 km/h (0 Bft) SO 135 2,4 C 7,8 C 0,0 km/h (0 Bft)
08.11.2014 15:05 10,7 C 57 % 1016,6 hPa 0,0 l/m 0,0 km/h (0 Bft) SO 135 2,5 C 7,8 C 0,0 km/h (0 Bft)
08.11.2014 15:10 10,3 C 58 % 1016,6 hPa 0,0 l/m 0,0 km/h (0 Bft) SO 135 2,4 C 7,8 C 0,0 km/h (0 Bft)
08.11.2014 15:15 9,9 C 59 % 1015,9 hPa 0,0 l/m 0,0 km/h (0 Bft) SO 135 2,3 C 7,8 C 0,0 km/h (0 Bft)
08.11.2014 15:20 9,4 C 61 % 1015,9 hPa 0,0 l/m 0,0 km/h (0 Bft) SO 135 2,3 C 7,8 C 0,0 km/h (0 Bft)
08.11.2014 15:25 9,1 C 62 % 1015,9 hPa 0,0 l/m 0,0 km/h (0 Bft) SO 135 2,2 C 7,8 C 0,0 km/h (0 Bft)
08.11.2014 15:30 8,5 C 64 % 1015,9 hPa 0,0 l/m 0,0 km/h (0 Bft) SO 135 2,1 C 7,8 C 0,0 km/h (0 Bft)
08.11.2014 15:35 8,2 C 65 % 1015,4 hPa 0,0 l/m 0,0 km/h (0 Bft) SO 135 2,0 C 7,8 C 0,0 km/h (0 Bft)
08.11.2014 15:40 8,1 C 67 % 1015,4 hPa 0,0 l/m 0,0 km/h (0 Bft) SO 135 2,3 C 7,8 C 0,0 km/h (0 Bft)
08.11.2014 15:45 8,0 C 68 % 1015,4 hPa 0,0 l/m 0,0 km/h (0 Bft) SO 135 2,5 C 7,8 C 0,0 km/h (0 Bft)
08.11.2014 15:50 8,1 C 68 % 1015,4 hPa 0,0 l/m 0,0 km/h (0 Bft) SO 135 2,6 C 7,8 C 0,0 km/h (0 Bft)
08.11.2014 15:55 7,8 C 69 % 1015,2 hPa 0,0 l/m 0,0 km/h (0 Bft) SO 135 2,5 C 7,8 C 0,0 km/h (0 Bft)
08.11.2014 16:00 7,8 C 70 % 1015,2 hPa 0,0 l/m 0,0 km/h (0 Bft) SO 135 2,7 C 7,8 C 0,0 km/h (0 Bft)
08.11.2014 16:05 7,6 C 70 % 1015,2 hPa 0,0 l/m 0,0 km/h (0 Bft) SO 135 2,5 C 7,8 C 0,0 km/h (0 Bft)
08.11.2014 16:10 7,6 C 70 % 1015,2 hPa 0,0 l/m 0,0 km/h (0 Bft) SO 135 2,5 C 7,8 C 0,0 km/h (0 Bft)
08.11.2014 16:15 7,3 C 71 % 1015,2 hPa 0,0 l/m 0,0 km/h (0 Bft) SO 135 2,4 C 7,8 C 0,0 km/h (0 Bft)
08.11.2014 16:20 7,3 C 71 % 1014,8 hPa 0,0 l/m 0,0 km/h (0 Bft) SO 135 2,4 C 7,8 C 0,0 km/h (0 Bft)
08.11.2014 16:25 7,5 C 72 % 1014,8 hPa 0,0 l/m 0,0 km/h (0 Bft) SO 135 2,8 C 7,8 C 0,0 km/h (0 Bft)
08.11.2014 16:30 7,4 C 72 % 1014,8 hPa 0,0 l/m 0,0 km/h (0 Bft) SO 135 2,7 C 7,8 C 0,0 km/h (0 Bft)
08.11.2014 16:35 7,0 C 73 % 1014,8 hPa 0,0 l/m 0,0 km/h (0 Bft) SO 135 2,5 C 7,8 C 0,0 km/h (0 Bft)
08.11.2014 16:40 6,8 C 74 % 1014,3 hPa 0,0 l/m 0,0 km/h (0 Bft) SO 135 2,5 C 7,8 C 0,0 km/h (0 Bft)
08.11.2014 16:45 6,5 C 75 % 1014,3 hPa 0,0 l/m 0,0 km/h (0 Bft) SO 135 2,4 C 7,8 C 0,0 km/h (0 Bft)
08.11.2014 16:50 6,3 C 75 % 1014,3 hPa 0,0 l/m 0,0 km/h (0 Bft) SO 135 2,2 C 7,8 C 0,0 km/h (0 Bft)
08.11.2014 16:55 6,0 C 76 % 1014,3 hPa 0,0 l/m 0,0 km/h (0 Bft) SO 135 2,1 C 7,8 C 0,0 km/h (0 Bft)
08.11.2014 17:00 5,9 C 78 % 1014,0 hPa 0,0 l/m 0,0 km/h (0 Bft) SO 135 2,4 C 7,8 C 0,0 km/h (0 Bft)
08.11.2014 17:05 5,8 C 78 % 1014,0 hPa 0,0 l/m 0,0 km/h (0 Bft) SO 135 2,3 C 7,8 C 0,0 km/h (0 Bft)
08.11.2014 17:10 5,7 C 78 % 1014,0 hPa 0,0 l/m 0,0 km/h (0 Bft) SO 135 2,2 C 7,8 C 0,0 km/h (0 Bft)
08.11.2014 17:15 5,5 C 79 % 1014,0 hPa 0,0 l/m 0,0 km/h (0 Bft) SO 135 2,2 C 7,8 C 0,0 km/h (0 Bft)
08.11.2014 17:20 5,5 C 79 % 1013,9 hPa 0,0 l/m 0,0 km/h (0 Bft) SO 135 2,2 C 7,8 C 0,0 km/h (0 Bft)
08.11.2014 17:25 5,4 C 80 % 1013,9 hPa 0,0 l/m 0,0 km/h (0 Bft) SO 135 2,2 C 7,8 C 0,0 km/h (0 Bft)
08.11.2014 17:30 5,3 C 80 % 1013,9 hPa 0,0 l/m 0,0 km/h (0 Bft) SO 135 2,1 C 7,8 C 0,0 km/h (0 Bft)
08.11.2014 17:35 5,0 C 81 % 1013,9 hPa 0,0 l/m 0,0 km/h (0 Bft) SO 135 2,0 C 7,8 C 0,0 km/h (0 Bft)
08.11.2014 17:40 4,3 C 80 % 1013,8 hPa 0,0 l/m 0,0 km/h (0 Bft) SO 135 1,2 C 7,8 C 0,0 km/h (0 Bft)
08.11.2014 17:45 4,5 C 81 % 1013,8 hPa 0,0 l/m 0,0 km/h (0 Bft) SO 135 1,5 C 7,8 C 0,0 km/h (0 Bft)
08.11.2014 17:50 4,6 C 82 % 1013,8 hPa 0,0 l/m 0,0 km/h (0 Bft) SO 135 1,8 C 7,8 C 0,0 km/h (0 Bft)
08.11.2014 17:53 4,6 C 82 % 1013,8 hPa 0,0 l/m 0,0 km/h (0 Bft) SO 135 1,8 C 7,8 C 0,0 km/h (0 Bft)
08.11.2014 18:00 4,6 C 83 % 1013,4 hPa 0,0 l/m 0,0 km/h (0 Bft) SO 135 2,0 C 7,8 C 0,0 km/h (0 Bft)
08.11.2014 18:05 4,8 C 85 % 1013,4 hPa 0,0 l/m 0,0 km/h (0 Bft) SO 135 2,5 C 7,8 C 0,0 km/h (0 Bft)
08.11.2014 18:10 4,7 C 86 % 1013,4 hPa 0,0 l/m 0,0 km/h (0 Bft) SO 135 2,6 C 7,8 C 0,0 km/h (0 Bft)
08.11.2014 18:15 4,9 C 87 % 1013,2 hPa 0,0 l/m 0,0 km/h (0 Bft) SO 135 2,9 C 7,8 C 0,0 km/h (0 Bft)
08.11.2014 18:20 4,3 C 87 % 1013,2 hPa 0,0 l/m 0,0 km/h (0 Bft) SO 135 2,3 C 7,8 C 0,0 km/h (0 Bft)
08.11.2014 18:25 4,5 C 87 % 1013,2 hPa 0,0 l/m 0,0 km/h (0 Bft) SO 135 2,5 C 7,8 C 0,0 km/h (0 Bft)
08.11.2014 18:30 4,6 C 88 % 1013,2 hPa 0,0 l/m 0,0 km/h (0 Bft) SO 135 2,8 C 7,8 C 0,0 km/h (0 Bft)
08.11.2014 18:35 4,7 C 89 % 1013,1 hPa 0,0 l/m 0,0 km/h (0 Bft) SO 135 3,0 C 7,8 C 0,0 km/h (0 Bft)
08.11.2014 18:40 4,4 C 89 % 1013,1 hPa 0,0 l/m 0,0 km/h (0 Bft) SO 135 2,7 C 7,8 C 0,0 km/h (0 Bft)
08.11.2014 18:45 4,3 C 89 % 1013,1 hPa 0,0 l/m 0,0 km/h (0 Bft) SO 135 2,7 C 7,8 C 0,0 km/h (0 Bft)
08.11.2014 18:50 4,1 C 89 % 1013,1 hPa 0,0 l/m 0,0 km/h (0 Bft) SO 135 2,5 C 7,8 C 0,0 km/h (0 Bft)
08.11.2014 18:55 3,9 C 89 % 1012,8 hPa 0,0 l/m 0,0 km/h (0 Bft) SO 135 2,3 C 7,8 C 0,0 km/h (0 Bft)
08.11.2014 19:00 4,0 C 89 % 1012,8 hPa 0,0 l/m 0,0 km/h (0 Bft) SO 135 2,4 C 7,8 C 0,0 km/h (0 Bft)
08.11.2014 19:05 4,0 C 89 % 1012,8 hPa 0,0 l/m 0,0 km/h (0 Bft) SO 135 2,4 C 7,8 C 0,0 km/h (0 Bft)
08.11.2014 19:10 4,0 C 89 % 1012,8 hPa 0,0 l/m 0,0 km/h (0 Bft) SO 135 2,4 C 7,8 C 0,0 km/h (0 Bft)
08.11.2014 19:15 3,7 C 89 % 1012,8 hPa 0,0 l/m 0,0 km/h (0 Bft) SO 135 2,1 C 7,8 C 0,0 km/h (0 Bft)
08.11.2014 19:20 3,8 C 90 % 1012,8 hPa 0,0 l/m 0,0 km/h (0 Bft) SO 135 2,3 C 7,8 C 0,0 km/h (0 Bft)
08.11.2014 19:25 3,8 C 90 % 1012,8 hPa 0,0 l/m 0,0 km/h (0 Bft) SO 135 2,3 C 7,8 C 0,0 km/h (0 Bft)
08.11.2014 19:30 3,6 C 90 % 1012,8 hPa 0,0 l/m 0,0 km/h (0 Bft) SO 135 2,1 C 7,8 C 0,0 km/h (0 Bft)
08.11.2014 19:35 3,5 C 90 % 1012,8 hPa 0,0 l/m 0,0 km/h (0 Bft) SO 135 2,0 C 7,8 C 0,0 km/h (0 Bft)
08.11.2014 19:40 3,6 C 90 % 1012,6 hPa 0,0 l/m 0,0 km/h (0 Bft) SO 135 2,1 C 7,8 C 0,0 km/h (0 Bft)
08.11.2014 19:45 3,3 C 90 % 1012,6 hPa 0,0 l/m 0,0 km/h (0 Bft) SO 135 1,8 C 7,8 C 0,0 km/h (0 Bft)
08.11.2014 19:50 3,6 C 90 % 1012,6 hPa 0,0 l/m 0,0 km/h (0 Bft) SO 135 2,1 C 7,8 C 0,0 km/h (0 Bft)
08.11.2014 19:55 3,5 C 90 % 1012,6 hPa 0,0 l/m 0,0 km/h (0 Bft) SO 135 2,0 C 7,8 C 0,0 km/h (0 Bft)
08.11.2014 20:00 2,9 C 91 % 1012,2 hPa 0,0 l/m 0,0 km/h (0 Bft) SO 135 1,6 C 7,8 C 0,0 km/h (0 Bft)
08.11.2014 20:05 2,1 C 90 % 1012,2 hPa 0,0 l/m 0,0 km/h (0 Bft) SO 135 0,6 C 7,8 C 0,0 km/h (0 Bft)
08.11.2014 20:10 2,0 C 89 % 1012,2 hPa 0,0 l/m 0,0 km/h (0 Bft) SO 135 0,4 C 7,8 C 0,0 km/h (0 Bft)
08.11.2014 20:15 2,1 C 90 % 1012,2 hPa 0,0 l/m 0,0 km/h (0 Bft) SO 135 0,6 C 7,8 C 0,0 km/h (0 Bft)
08.11.2014 20:20 2,3 C 91 % 1012,2 hPa 0,0 l/m 0,0 km/h (0 Bft) SO 135 1,0 C 7,8 C 0,0 km/h (0 Bft)
08.11.2014 20:25 1,7 C 91 % 1012,2 hPa 0,0 l/m 0,0 km/h (0 Bft) SO 135 0,4 C 7,8 C 0,0 km/h (0 Bft)
08.11.2014 20:30 1,4 C 90 % 1012,2 hPa 0,0 l/m 0,0 km/h (0 Bft) SO 135 -0,1 C 7,8 C 0,0 km/h (0 Bft)
08.11.2014 20:35 1,3 C 90 % 1012,2 hPa 0,0 l/m 0,0 km/h (0 Bft) SO 135 -0,2 C 7,8 C 0,0 km/h (0 Bft)
08.11.2014 20:40 1,8 C 91 % 1012,0 hPa 0,0 l/m 0,0 km/h (0 Bft) SO 135 0,5 C 7,8 C 0,0 km/h (0 Bft)
08.11.2014 20:45 2,1 C 91 % 1012,0 hPa 0,0 l/m 0,0 km/h (0 Bft) SO 135 0,8 C 7,8 C 0,0 km/h (0 Bft)
08.11.2014 20:50 1,9 C 91 % 1012,0 hPa 0,0 l/m 0,0 km/h (0 Bft) SO 135 0,6 C 7,8 C 0,0 km/h (0 Bft)
08.11.2014 20:55 1,8 C 92 % 1011,9 hPa 0,0 l/m 0,0 km/h (0 Bft) SO 135 0,6 C 7,8 C 0,0 km/h (0 Bft)
08.11.2014 21:00 2,3 C 92 % 1011,9 hPa 0,0 l/m 0,0 km/h (0 Bft) SO 135 1,1 C 7,8 C 0,0 km/h (0 Bft)
08.11.2014 21:05 2,2 C 92 % 1011,9 hPa 0,0 l/m 0,0 km/h (0 Bft) SO 135 1,0 C 7,8 C 0,0 km/h (0 Bft)
08.11.2014 21:10 1,0 C 92 % 1011,9 hPa 0,0 l/m 0,0 km/h (0 Bft) SO 135 -0,2 C 7,8 C 0,0 km/h (0 Bft)
08.11.2014 21:15 1,3 C 92 % 1011,8 hPa 0,0 l/m 0,0 km/h (0 Bft) SO 135 0,1 C 7,8 C 0,0 km/h (0 Bft)
08.11.2014 21:20 1,1 C 92 % 1011,8 hPa 0,0 l/m 0,0 km/h (0 Bft) SO 135 -0,1 C 7,8 C 0,0 km/h (0 Bft)
08.11.2014 21:25 1,2 C 92 % 1011,8 hPa 0,0 l/m 0,0 km/h (0 Bft) SO 135 0,0 C 7,8 C 0,0 km/h (0 Bft)
08.11.2014 21:30 2,1 C 93 % 1011,8 hPa 0,0 l/m 0,0 km/h (0 Bft) SO 135 1,1 C 7,8 C 0,0 km/h (0 Bft)
08.11.2014 21:35 1,8 C 93 % 1011,8 hPa 0,0 l/m 0,0 km/h (0 Bft) SO 135 0,8 C 7,8 C 0,0 km/h (0 Bft)
08.11.2014 21:40 0,8 C 93 % 1011,8 hPa 0,0 l/m 0,0 km/h (0 Bft) SO 135 -0,2 C 7,8 C 0,0 km/h (0 Bft)
08.11.2014 21:45 1,4 C 93 % 1011,8 hPa 0,0 l/m 0,0 km/h (0 Bft) SO 135 0,4 C 7,8 C 0,0 km/h (0 Bft)
08.11.2014 21:50 0,9 C 93 % 1011,8 hPa 0,0 l/m 0,0 km/h (0 Bft) SO 135 -0,1 C 7,8 C 0,0 km/h (0 Bft)
08.11.2014 21:55 0,4 C 93 % 1011,4 hPa 0,0 l/m 0,0 km/h (0 Bft) SO 135 -0,6 C 7,8 C 0,0 km/h (0 Bft)
08.11.2014 22:00 1,0 C 93 % 1011,4 hPa 0,0 l/m 0,0 km/h (0 Bft) SO 135 -0,0 C 7,8 C 0,0 km/h (0 Bft)
08.11.2014 22:05 0,6 C 93 % 1011,4 hPa 0,0 l/m 0,0 km/h (0 Bft) SO 135 -0,4 C 7,8 C 0,0 km/h (0 Bft)
08.11.2014 22:10 0,6 C 93 % 1011,4 hPa 0,0 l/m 0,0 km/h (0 Bft) SO 135 -0,4 C 7,8 C 0,0 km/h (0 Bft)
08.11.2014 22:15 1,1 C 93 % 1011,4 hPa 0,0 l/m 0,0 km/h (0 Bft) SO 135 0,1 C 7,8 C 0,0 km/h (0 Bft)
08.11.2014 22:20 0,7 C 93 % 1011,2 hPa 0,0 l/m 0,0 km/h (0 Bft) SO 135 -0,3 C 7,8 C 0,0 km/h (0 Bft)
08.11.2014 22:25 0,7 C 93 % 1011,2 hPa 0,0 l/m 0,0 km/h (0 Bft) SO 135 -0,3 C 7,8 C 0,0 km/h (0 Bft)
08.11.2014 22:30 0,2 C 93 % 1011,2 hPa 0,0 l/m 0,0 km/h (0 Bft) SO 135 -0,8 C 7,8 C 0,0 km/h (0 Bft)
08.11.2014 22:35 -0,1 C 92 % 1011,2 hPa 0,0 l/m 0,0 km/h (0 Bft) SO 135 -1,2 C 7,8 C 0,0 km/h (0 Bft)
08.11.2014 22:40 0,3 C 93 % 1011,1 hPa 0,0 l/m 0,0 km/h (0 Bft) SO 135 -0,7 C 7,8 C 0,0 km/h (0 Bft)
08.11.2014 22:45 1,1 C 93 % 1011,1 hPa 0,0 l/m 0,0 km/h (0 Bft) SO 135 0,1 C 7,8 C 0,0 km/h (0 Bft)
08.11.2014 22:50 0,3 C 93 % 1011,1 hPa 0,0 l/m 0,0 km/h (0 Bft) SO 135 -0,7 C 7,8 C 0,0 km/h (0 Bft)
08.11.2014 22:55 0,3 C 93 % 1011,1 hPa 0,0 l/m 0,0 km/h (0 Bft) SO 135 -0,7 C 7,8 C 0,0 km/h (0 Bft)
08.11.2014 23:00 -0,1 C 93 % 1011,0 hPa 0,0 l/m 0,0 km/h (0 Bft) SO 135 -1,1 C 7,8 C 0,0 km/h (0 Bft)
08.11.2014 23:05 -0,2 C 93 % 1011,0 hPa 0,0 l/m 0,0 km/h (0 Bft) SO 135 -1,2 C 7,8 C 0,0 km/h (0 Bft)
08.11.2014 23:10 0,6 C 93 % 1011,0 hPa 0,0 l/m 0,0 km/h (0 Bft) SO 135 -0,4 C 7,8 C 0,0 km/h (0 Bft)
08.11.2014 23:15 0,4 C 93 % 1011,0 hPa 0,0 l/m 0,0 km/h (0 Bft) SO 135 -0,6 C 7,8 C 0,0 km/h (0 Bft)
08.11.2014 23:20 0,5 C 94 % 1011,1 hPa 0,0 l/m 0,0 km/h (0 Bft) SO 135 -0,4 C 7,8 C 0,0 km/h (0 Bft)
08.11.2014 23:25 -0,3 C 93 % 1011,1 hPa 0,0 l/m 0,0 km/h (0 Bft) SO 135 -1,3 C 7,8 C 0,0 km/h (0 Bft)
08.11.2014 23:30 0,1 C 93 % 1011,1 hPa 0,0 l/m 0,0 km/h (0 Bft) SO 135 -0,9 C 7,8 C 0,0 km/h (0 Bft)
08.11.2014 23:35 -0,6 C 93 % 1011,1 hPa 0,0 l/m 0,0 km/h (0 Bft) SO 135 -1,6 C 7,8 C 0,0 km/h (0 Bft)
08.11.2014 23:40 -0,5 C 93 % 1011,0 hPa 0,0 l/m 0,0 km/h (0 Bft) SO 135 -1,5 C 7,8 C 0,0 km/h (0 Bft)
08.11.2014 23:45 -0,7 C 93 % 1011,0 hPa 0,0 l/m 0,0 km/h (0 Bft) SO 135 -1,7 C 7,8 C 0,0 km/h (0 Bft)
08.11.2014 23:48 -0,8 C 93 % 1011,0 hPa 0,0 l/m 0,0 km/h (0 Bft) SO 135 -1,8 C 7,8 C 0,0 km/h (0 Bft)
08.11.2014 23:50 -0,8 C 93 % 1011,0 hPa 0,0 l/m 0,0 km/h (0 Bft) SO 135 -1,8 C 7,8 C 0,0 km/h (0 Bft)
08.11.2014 23:55 -0,6 C 93 % 1011,0 hPa 0,0 l/m 0,0 km/h (0 Bft) SO 135 -1,6 C 7,8 C 0,0 km/h (0 Bft)
_ Min-Zeit 23:50 14:50 23:55 - 23:55 - - 23:50 23:55 23:55
Minimum _ -0,8 C 55 % 1011,0 hPa - 0,0 km/h (0 Bft) - - -1,8 C 7,8 C 0,0 km/h (0 Bft)
_ Max-Zeit 14:10 23:20 12:30 23:55 23:55 - - 10:20 23:55 23:55
Maximum _ 11,6 C 94 % 1018,5 hPa 0,0 l/m 0,0 km/h
SO (0 Bft)
- - 6,2 C 7,8 C 0,0 km/h
SO (0 Bft)
Durchschnitt _ 5,7 C 81 % 1015,5 hPa #0,0 l/m 0,0 km/h (0 Bft) - - - 2,5 C 7,8 C 0,0 km/h (0 Bft)